User: anonymous   Login
Location: Cluny
(50.9333°N, 112.8167°W)
Time: 01:24:23
(UTC-06:00)
Language:

Cosmos 1743 Rocket - Orbit

View from above orbital plane
View from above orbital plane
View from above satellite
View from above satellite

Ground track
Ground track

The orbit data is extracted from the following two-line orbital elements,

1 16720U 86034B   16183.60116525  .00000093  00000-0  84481-5 0  9994
2 16720  82.5529 208.3362 0020383 173.6522 310.2281 14.83234107627291
Epoch (UTC): 01 July 2016 14:25:40
Eccentricity: 0.0020383
inclination: 82.5529°
perigee height: 605 km
apogee height: 633 km
right ascension of ascending node: 208.3362°
argument of perigee: 173.6522°
revolutions per day: 14.83234107
mean anomaly at epoch: 310.2281°
orbit number at epoch: 62729

The dashed part of the orbit path shows where the satellite is in the earth's shadow,  

DLR